Tacoma, WA

7:19 AM PDT on September 25, 2016 (GMT -0700)
McChord Air Force Base

Weather History for KTCM - May, 2014

Change the Weather History Date:

Wednesday, May 7, 2014

  Actual Average Record
Temperature  
Mean Temperature 53 °F -  
Max Temperature 65 °F 59 °F 83 °F (2016)
Min Temperature 41 °F 40 °F 32 °F (2002)
Degree Days  
Heating Degree Days 12    
Growing Degree Days 3 (Base 50)    
Moisture  
Dew Point 43 °F    
Average Humidity 69    
Maximum Humidity 99    
Minimum Humidity 43    
Precipitation  
Precipitation 0.00 in - - ()
Sea Level Pressure  
Sea Level Pressure 30.00 in    
Wind  
Wind Speed 4 mph (SW)    
Max Wind Speed 9 mph    
Max Gust Speed -    
Visibility 10 miles    
Events      
Averages and records for this station are not official NWS values.
T = Trace of Precipitation, MM = Missing Value Source: NWS Daily Summary

Daily Weather History Graph

Daily Weather History Graph

Search for Another Location

Airport or City:

Trip Planner

Search our weather history database for the weather conditions in past years. The results will help you decide how hot, cold, wet, or windy it might be!

Date:

Astronomy

May. 07, 2014 Rise Set
Actual Time 5:44 AM PDT 8:29 PM PDT
Civil Twilight 5:09 AM PDT 9:04 PM PDT
Nautical Twilight 4:25 AM PDT 9:48 PM PDT
Astronomical Twilight 3:33 AM PDT 10:41 PM PDT
Moon 1:12 PM PDT (5/7) 2:14 AM PDT (5/7)
Length of Visible Light 15h 54m
Length of Day
14h 44m
First Quarter, 56% of the Moon is Illuminated
May 7
First Quarter
May 14
Full
May 21
Last Quarter
May 28
New
Jun 5
First Quarter

Hourly Weather History & Observations

Time (PDT) Temp. Windchill Dew Point Humidity Pressure Visibility Wind Dir Wind Speed Gust Speed Precip Events Conditions
12:58 AM 41.5 °F 38.6 °F 39.6 °F 93% 30.06 in 10.0 mi SSE 4.6 mph - N/A   Partly Cloudy
1:58 AM 43.9 °F 41.3 °F 41.2 °F 90% 30.06 in 10.0 mi SSW 4.6 mph - N/A   Mostly Cloudy
2:58 AM 45.5 °F 44.2 °F 42.1 °F 88% 30.06 in 10.0 mi SSE 3.5 mph - N/A   Overcast
3:58 AM 45.7 °F 43.4 °F 42.6 °F 89% 30.07 in 10.0 mi South 4.6 mph - N/A   Overcast
4:58 AM 45.0 °F - 41.4 °F 87% 30.06 in 10.0 mi SSE 2.3 mph - N/A   Mostly Cloudy
5:58 AM 41.5 °F - 41.0 °F 98% 30.06 in 10.0 mi ESE 2.3 mph - N/A   Scattered Clouds
6:58 AM 42.4 °F - 42.3 °F 99% 30.06 in 10.0 mi SE 1.2 mph - N/A   Clear
7:58 AM 47.7 °F - 42.6 °F 83% 30.06 in 10.0 mi South 1.2 mph - N/A   Clear
8:58 AM 51.6 °F - 43.5 °F 74% 30.06 in 10.0 mi Variable 2.3 mph - N/A   Clear
9:58 AM 53.6 °F - 43.7 °F 69% 30.06 in 10.0 mi West 8.1 mph - N/A   Clear
10:58 AM 55.8 °F - 42.1 °F 60% 30.06 in 10.0 mi West 5.8 mph - N/A   Clear
11:58 AM 57.9 °F - 42.1 °F 56% 30.05 in 10.0 mi Variable 1.2 mph - N/A   Clear
12:58 PM 60.8 °F - 43.7 °F 53% 30.01 in 10.0 mi Variable 4.6 mph - N/A   Clear
1:58 PM 62.6 °F - 45.0 °F 52% 29.99 in 10.0 mi East 6.9 mph - N/A   Clear
2:58 PM 63.7 °F - 45.1 °F 51% 29.97 in 10.0 mi West 9.2 mph - N/A   Clear
3:58 PM 64.6 °F - 44.4 °F 48% 29.96 in 10.0 mi Variable 3.5 mph - N/A   Clear
4:58 PM 65.7 °F - 44.2 °F 46% 29.94 in 10.0 mi West 5.8 mph - N/A   Clear
5:58 PM 65.1 °F - 42.3 °F 43% 29.94 in 10.0 mi WNW 5.8 mph - N/A   Clear
6:58 PM 64.6 °F - 42.8 °F 45% 29.91 in 10.0 mi Variable 4.6 mph - N/A   Clear
7:58 PM 62.4 °F - 42.1 °F 47% 29.91 in 10.0 mi NW 2.3 mph - N/A   Clear
8:58 PM 59.2 °F - 46.2 °F 62% 29.91 in 10.0 mi WNW 8.1 mph - N/A   Clear
9:58 PM 55.6 °F - 45.5 °F 69% 29.91 in 10.0 mi West 9.2 mph - N/A   Clear
10:58 PM 53.6 °F - 44.1 °F 70% 29.91 in 10.0 mi West 8.1 mph - N/A   Clear
11:58 PM 52.5 °F - 44.1 °F 73% 29.92 in 10.0 mi WSW 6.9 mph - N/A   Overcast